M0TJX-1 Weather Reports


time (UTC)temp
C
wind
direction
speed
KPH
gust
KPH
rain 1hr
cm
rain 24hr
cm
rain mn
cm
humidity
%
barometer
mb
20260510175806 12 32 1.6 8.0 0.00 0.00 0.00 60 1014.8
20260510174306 12 26 4.8 9.7 0.00 0.00 0.00 61 1014.8
20260510172806 12 339 3.2 11.3 0.00 0.00 0.00 60 1014.9
20260510171306 12 31 8.0 14.5 0.00 0.00 0.00 59 1015.1
20260510165806 13 34 4.8 24.1 0.00 0.00 0.00 61 1015.1
20260510164306 12 54 4.8 16.1 0.00 0.00 0.00 61 1015.4
20260510162806 12 38 4.8 17.7 0.00 0.00 0.00 62 1015.6
20260510161306 13 234 6.4 17.7 0.00 0.00 0.00 62 1015.7
20260510155806 13 9 6.4 9.7 0.00 0.00 0.00 63 1015.7
20260510154306 12 10 6.4 19.3 0.00 0.00 0.00 62 1015.8
20260510152806 12 49 4.8 14.5 0.00 0.00 0.00 65 1016.0
20260510151306 12 355 6.4 14.5 0.00 0.00 0.00 65 1016.1
20260510145806 12 0 6.4 16.1 0.00 0.00 0.00 65 1016.4
20260510144306 12 162 6.4 12.9 0.00 0.00 0.00 67 1016.6
20260510142806 12 0 4.8 12.9 0.00 0.00 0.00 67 1016.8
20260510141306 12 15 6.4 12.9 0.00 0.00 0.00 68 1017.0
20260510135806 12 42 8.0 14.5 0.00 0.00 0.00 70 1017.0
20260510134306 11 24 6.4 14.5 0.00 0.00 0.00 69 1017.1
20260510132806 11 39 6.4 17.7 0.00 0.00 0.00 70 1017.2
20260510131306 11 13 6.4 16.1 0.00 0.00 0.00 72 1017.2
20260510131053 11 315 8.0 19.3 0.00 0.00 0.00 72 1017.3
20260510125806 11 315 8.0 19.3 0.00 0.00 0.00 72 1017.3
20260510124306 11 54 8.0 17.7 0.00 0.00 0.00 73 1017.4
20260510122806 11 19 6.4 17.7 0.00 0.00 0.00 73 1017.4
20260510121306 11 107 6.4 19.3 0.00 0.00 0.00 73 1017.5
20260510115806 11 21 6.4 17.7 0.00 0.00 0.00 73 1017.6
20260510114306 11 5 6.4 16.1 0.00 0.00 0.00 75 1017.7
20260510112806 11 16 6.4 22.5 0.00 0.00 0.00 74 1018.0
20260510111734 11 27 8.0 17.7 0.00 0.00 0.00 76 1018.2
20260510111727 11 0 6.4 14.5 0.00 0.00 0.00 77 1018.2
20260510111307 11 27 8.0 17.7 0.00 0.00 0.00 76 1018.2
20260510105807 11 0 6.4 14.5 0.00 0.00 0.00 77 1018.2
20260510104307 10 330 8.0 17.7 0.00 0.00 0.00 79 1018.3
20260510102807 10 65 8.0 22.5 0.00 0.00 0.00 79 1018.7
20260510101818 10 89 4.8 12.9 0.00 0.00 0.00 81 1018.7
20260510101307 10 89 4.8 12.9 0.00 0.00 0.00 81 1018.7
20260510095807 10 22 9.7 27.4 0.00 0.00 0.00 80 1018.6
20260510094307 10 348 6.4 17.7 0.00 0.00 0.00 80 1018.7
20260510092807 10 37 6.4 16.1 0.00 0.00 0.00 80 1018.7
20260510092205 10 0 6.4 20.9 0.00 0.00 0.00 80 1018.7
20260510091307 10 0 6.4 20.9 0.00 0.00 0.00 80 1018.7
20260510085807 10 25 8.0 19.3 0.00 0.00 0.00 80 1018.8
20260510084823 10 355 4.8 16.1 0.00 0.00 0.00 79 1018.8
20260510084307 10 355 4.8 16.1 0.00 0.00 0.00 79 1018.8
20260510082807 10 26 8.0 24.1 0.00 0.00 0.00 78 1018.8
20260510081307 10 55 6.4 19.3 0.00 0.00 0.00 79 1018.6
20260510075807 10 39 8.0 20.9 0.00 0.00 0.00 78 1018.6
20260510074307 10 34 8.0 20.9 0.00 0.00 0.00 78 1018.5
20260510072807 10 26 8.0 17.7 0.00 0.00 0.00 78 1018.6
20260510071307 10 340 8.0 17.7 0.00 0.00 0.00 78 1018.6
20260510065807 10 5 8.0 25.7 0.00 0.00 0.00 78 1018.6
20260510064307 10 26 6.4 20.9 0.00 0.00 0.00 81 1018.4
20260510062807 9 41 8.0 27.4 0.00 0.00 0.00 82 1018.3
20260510061307 8 340 4.8 20.9 0.00 0.00 0.00 84 1018.4
20260510055807 8 32 3.2 9.7 0.00 0.00 0.00 84 1018.3
20260510054307 8 33 4.8 9.7 0.00 0.00 0.00 84 1018.2
20260510052807 8 76 4.8 12.9 0.00 0.00 0.00 84 1018.2
20260510051307 8 38 4.8 12.9 0.00 0.00 0.00 84 1018.3
20260510045807 8 67 4.8 12.9 0.00 0.00 0.00 84 1018.3
20260510044307 8 93 6.4 20.9 0.00 0.00 0.00 84 1018.4
20260510042807 8 34 6.4 20.9 0.00 0.00 0.00 84 1018.5
20260510041307 8 28 4.8 14.5 0.00 0.00 0.00 85 1018.6
20260510035807 8 36 3.2 12.9 0.00 0.00 0.00 85 1018.7
20260510034307 8 19 4.8 16.1 0.00 0.00 0.00 85 1018.7
20260510032807 8 28 4.8 14.5 0.00 0.00 0.00 85 1018.7
20260510031307 8 355 4.8 12.9 0.00 0.00 0.00 84 1018.7
20260510025807 8 347 4.8 17.7 0.00 0.00 0.00 84 1018.7
20260510024307 8 32 4.8 14.5 0.00 0.00 0.00 83 1018.8
20260510022807 8 335 6.4 20.9 0.00 0.00 0.00 82 1018.8
20260510021307 8 30 6.4 17.7 0.00 0.00 0.00 82 1018.9
20260510015807 9 21 4.8 16.1 0.00 0.00 0.00 81 1019.0
20260510014307 9 355 4.8 16.1 0.00 0.00 0.00 81 1018.8
20260510012807 9 26 4.8 14.5 0.00 0.00 0.00 81 1018.9
20260510011307 10 21 6.4 11.3 0.00 0.00 0.00 79 1018.9
20260510005807 10 0 4.8 16.1 0.00 0.00 0.00 77 1018.9
20260510004307 10 5 4.8 12.9 0.00 0.00 0.00 77 1018.9
20260510002809 10 355 4.8 14.5 0.00 0.00 0.00 75 1018.8
20260510001307 10 24 4.8 9.7 0.00 0.00 0.00 74 1018.7
20260509235807 11 0 6.4 14.5 0.00 0.00 0.00 73 1018.5
20260509234307 11 15 6.4 19.3 0.00 0.00 0.00 72 1018.4
20260509232807 11 5 6.4 12.9 0.00 0.00 0.00 71 1018.5
20260509231307 11 28 6.4 16.1 0.00 0.00 0.00 72 1018.5
20260509225807 11 322 6.4 22.5 0.00 0.00 0.00 73 1018.3
20260509224307 12 30 4.8 16.1 0.00 0.00 0.00 79 1018.3
20260509222807 12 17 3.2 12.9 0.00 0.00 0.00 82 1018.3
20260509221307 12 23 3.2 8.0 0.00 0.00 0.00 81 1018.3
20260509215807 13 17 1.6 11.3 0.00 0.00 0.00 80 1018.2
20260509214307 13 23 3.2 8.0 0.00 0.00 0.00 79 1018.1
20260509212808 13 39 3.2 16.1 0.00 0.00 0.00 79 1018.1
20260509211308 13 13 4.8 16.1 0.00 0.00 0.00 78 1017.8
20260509205808 13 26 3.2 14.5 0.00 0.00 0.00 79 1017.6
20260509204308 14 12 3.2 11.3 0.00 0.00 0.00 78 1017.4
20260509202808 14 46 1.6 14.5 0.00 0.00 0.00 75 1017.2
20260509201308 15 34 3.2 11.3 0.00 0.00 0.00 68 1017.1
20260509195808 15 25 0.0 3.2 0.00 0.00 0.00 60 1017.0
20260509194308 15 19 0.0 3.2 0.00 0.00 0.00 58 1016.8
20260509192808 16 15 1.6 6.4 0.00 0.00 0.00 57 1016.8
20260509191308 16 5 1.6 6.4 0.00 0.00 0.00 56 1017.0
20260509185808 17 32 3.2 8.0 0.00 0.00 0.00 54 1016.8
20260509184308 17 33 3.2 6.4 0.00 0.00 0.00 53 1016.6
20260509182808 18 310 4.8 11.3 0.00 0.00 0.00 53 1016.6
20260509181308 18 39 3.2 11.3 0.00 0.00 0.00 52 1016.4